This is the latest recevied weather packets stored in our database for station/object KC1BRV. If no packets are shown the sender has not sent any weather packets the latest 10 day(s).
| Time | Temp. | Humidity | Pressure | Rain* | Wind** | Luminosity | Snow |
|---|---|---|---|---|---|---|---|
| 1788365694 | 22.22° C | 68% | 1022.5 hPa | 0 mm | - | 529 W/m² | - |
| 1788365389 | 22.22° C | 67% | 1022.7 hPa | 0 mm | - | 423 W/m² | - |
| 1788365085 | 22.22° C | 68% | 1022.6 hPa | 0 mm | - | 464 W/m² | - |
| 1788364783 | 22.22° C | 67% | 1022.7 hPa | 0 mm | - | 441 W/m² | - |
| 1788364479 | 21.67° C | 65% | 1022.9 hPa | 0 mm | - | 409 W/m² | - |
| 1788364172 | 21.67° C | 68% | 1022.9 hPa | 0 mm | - | 339 W/m² | - |
| 1788363868 | 21.67° C | 70% | 1023 hPa | 0 mm | - | 537 W/m² | - |
| 1788363567 | 22.22° C | 69% | 1023 hPa | 0 mm | - | 327 W/m² | - |
| 1788363266 | 22.22° C | 69% | 1023.1 hPa | 0 mm | - | 322 W/m² | - |
| 1788362962 | 22.22° C | 64% | 1023.1 hPa | 0 mm | - | 337 W/m² | - |
| 1788362658 | 22.22° C | 68% | 1022.9 hPa | 0 mm | - | 416 W/m² | - |
| 1788362353 | 22.22° C | 67% | 1022.8 hPa | 0 mm | - | 395 W/m² | - |
| 1788362049 | 21.67° C | 73% | 1022.9 hPa | 0 mm | - | 712 W/m² | - |
| 1788361748 | 22.22° C | 70% | 1022.8 hPa | 0 mm | - | 511 W/m² | - |
| 1788361445 | 22.22° C | 73% | 1022.9 hPa | 0 mm | - | 576 W/m² | - |
| 1788361144 | 22.22° C | 73% | 1022.8 hPa | 0 mm | - | 518 W/m² | - |
| 1788360840 | 21.67° C | 75% | 1022.8 hPa | 0 mm | - | 537 W/m² | - |
| 1788360535 | 21.67° C | 76% | 1023 hPa | 0 mm | - | 601 W/m² | - |
| 1788360231 | 21.67° C | 75% | 1023 hPa | 0 mm | - | 423 W/m² | - |
| 1788359930 | 21.11° C | 74% | 1023.2 hPa | 0 mm | - | 412 W/m² | - |
| 1788359625 | 21.11° C | 72% | 1023 hPa | 0 mm | - | 428 W/m² | - |
| 1788359321 | 20.56° C | 76% | 1023.1 hPa | 0 mm | - | 484 W/m² | - |
| 1788359017 | 20° C | 82% | 1023 hPa | 0 mm | - | 422 W/m² | - |
| 1788358712 | 20° C | 82% | 1022.9 hPa | 0 mm | - | 174 W/m² | - |
| 1788358408 | 19.44° C | 84% | 1022.8 hPa | 0 mm | - | 116 W/m² | - |
* Rain latest hour (hover to see other rain measurements)
** Current wind speed in m/s (hover to see current wind gust speed)